[[{"header":{"parameterUnit":"m.s-1","parameterCategory":1,"la1":30.2991,"la2":30.254,"lo1":-89.0895,"lo2":-89.0444,"dy":0.0017,"dx":0.0017,"nx":28,"ny":28,"refTime":"2025-07-19T09:00:00:Z","depth":0,"parameterNumber":2,"parameterNumberName":"U-component_of_WINDS"},"data":[0,0,0,0,0,0,0,0,0,0,0,0,0,0,0,0,0,0,0,0,0,0,0,0,0,0,0,0,0,0,0,0,0,0,0,0,0,0,0,0,0,0,0,0,0,0,0,0,0,0,0,0,0,0,0,0,0,0,4.0966,4.0968,0,4.1145,4.1147,4.1149,4.1105,4.1102,4.1098,4.1095,4.1282,4.129,4.1298,0,0,0,0,0,0,0,0,0,0,0,0,0,4.0586,4.0593,4.0966,4.0968,4.097,4.1145,4.1147,4.115,4.1106,4.1101,4.1097,4.1093,4.1279,4.1289,4.1299,0,0,0,0,0,0,0,0,0,0,0,0,0,4.0757,4.0596,4.0965,4.0969,4.0971,4.1145,4.1148,4.1151,4.1107,4.1101,4.1096,4.1091,4.1276,4.1288,4.13,4.1482,0,0,4.1338,4.1344,0,0,0,0,0,0,0,0,4.0747,4.0771,4.0966,4.0969,4.0972,4.1097,4.1082,4.1262,4.1108,4.1055,4.1095,4.1089,4.1225,4.1241,4.1287,4.1491,4.1499,4.1339,4.1347,4.1352,4.1356,0,0,0,0,0,0,0,4.0736,4.0763,4.1037,4.0969,4.0973,4.0962,4.0981,4.1116,4.1168,4.1059,4.1057,4.1078,4.1226,4.1275,4.1291,4.1502,4.1339,4.135,4.1358,4.1362,4.1861,4.1867,0,0,0,0,0,0,4.0721,4.0753,4.1031,4.1042,4.0844,4.0973,4.0994,4.1062,4.1166,4.1177,4.1083,4.1076,4.1256,4.1276,4.1297,4.1515,4.1352,4.1364,4.1371,4.1856,4.1863,4.1869,0,0,0,0,0,0,4.0713,4.0746,4.1024,4.0897,4.0932,4.0986,4.1063,4.1069,4.1118,4.1183,4.1193,4.1123,4.1253,4.128,4.1436,4.1521,4.1369,4.138,4.1849,4.1858,4.1866,4.1953,0,0,0,0,0,0,4.0703,4.0744,4.0813,4.0899,4.0939,4.1159,4.1068,4.1076,4.1139,4.1131,4.1224,4.1234,4.1251,4.1417,4.1448,4.1535,4.139,4.1841,4.1853,4.1863,4.1942,4.1963,4.1981,0,0,0,0,0,4.0689,4.0832,4.0817,4.0851,4.1026,4.1164,4.1187,4.1202,4.1146,4.1216,4.1258,4.1231,4.1507,4.1434,4.1468,4.156,4.1836,4.1849,4.1862,4.1934,4.1959,4.1981,0,0,0,0,0,0,4.0756,4.0843,4.0828,4.1002,4.1076,4.1156,4.1245,4.1229,4.1321,4.131,4.1326,4.1347,4.1506,4.1549,4.1466,4.174,4.1663,4.1684,4.1706,4.1731,4.175,4.1736,4.14,0,0,0,0,0,4.0791,4.0895,4.0966,4.1113,4.115,4.1192,4.1252,4.1257,4.1335,4.1366,4.1419,4.1496,4.16,4.1668,4.1767,4.1949,4.1967,4.2029,4.2048,4.2064,4.2081,4.2178,4.2206,4.1912,4.1912,4.1912,0,0,4.0865,4.0925,4.099,4.1128,4.1185,4.1293,4.1218,4.1336,4.1415,4.1384,4.1534,4.1576,4.1663,4.1831,4.1909,4.1872,4.2166,4.208,4.2092,4.2101,4.2194,4.2222,4.2247,4.1921,4.1919,4.1918,0,0,4.1053,4.111,4.1237,4.1296,4.1384,4.141,4.144,4.1523,4.1549,4.1699,4.1677,4.1773,4.1952,4.2013,4.2069,4.2278,4.2257,4.231,4.2411,4.2506,4.2529,4.2549,4.2623,4.2649,4.2328,4.2328,4.2328,0,4.1134,4.1294,4.1306,4.1424,4.1485,4.146,4.1589,4.1646,4.1762,4.1805,4.1762,4.1983,4.2041,4.2222,4.2273,4.2319,4.2354,4.23,4.2524,4.2545,4.2565,4.2635,4.2662,4.2334,4.2333,4.2332,4.2332,0,4.1388,4.1499,4.1592,4.1702,4.1774,4.1897,4.1928,4.1999,4.1997,4.2028,4.218,4.2247,4.2358,4.2402,4.2403,4.2584,4.2558,4.252,4.2443,4.2598,4.2664,4.2691,4.2342,4.234,4.2338,4.2337,0,0,4.1625,4.1738,4.1772,4.1821,4.1915,4.2001,4.2123,4.223,4.229,4.2371,4.2473,4.2623,4.2588,4.265,4.2657,4.2741,4.29,4.2692,4.2694,4.2727,4.3102,4.3129,4.316,4.2886,4.2892,4.2896,4.3094,0,4.182,4.2033,4.2046,4.224,4.2342,4.2319,4.2425,4.2494,4.2525,4.2617,4.2652,4.2758,4.2704,4.2741,4.2822,4.2863,4.2975,4.2849,4.2981,4.2986,4.2959,4.3194,4.3224,4.3408,4.312,4.3124,4.3127,0,4.2077,4.2163,4.2366,4.2443,4.2486,4.2581,4.2679,4.2767,4.2845,4.2862,4.293,4.2925,4.305,4.2969,4.3141,4.3055,4.3109,4.3137,4.3145,4.3157,4.3065,4.3211,4.3467,4.3494,4.3169,4.3165,4.3162,0,4.2227,4.2394,4.2536,4.2579,4.2673,4.274,4.2783,4.2855,4.2917,4.3004,4.3044,4.3144,4.3199,4.3277,4.3299,4.3238,4.347,4.3391,4.3487,4.3486,4.3536,4.3532,4.3802,4.3574,4.3573,4.3573,4.3572,0,4.2443,4.2568,4.2604,4.2692,4.283,4.2844,4.2981,4.302,4.3084,4.3178,4.3165,4.3254,4.3278,4.3372,4.339,4.3528,4.3554,4.3571,4.3574,4.3571,4.3569,4.3607,4.3594,4.358,4.3578,4.3577,4.3576,0,4.2634,4.2664,4.2817,4.2893,4.2914,4.3013,4.3078,4.3162,4.3191,4.331,4.3339,4.3385,4.3494,4.3524,4.3656,4.3668,4.383,4.3822,4.3803,4.3802,4.3896,4.3886,4.4198,4.4239,4.3985,4.3988,4.399,0,4.277,4.2865,4.295,4.3011,4.3056,4.3156,4.3219,4.3236,4.3302,4.3396,4.3469,4.3576,4.3662,4.3838,4.3883,4.3983,4.3977,4.4079,4.3992,4.3985,4.3976,4.397,4.3978,4.4096,4.4098,4.4101,4.4102,0,4.3007,4.3016,4.3107,4.3203,4.3278,4.3355,4.3429,4.348,4.3507,4.3583,4.3693,4.376,4.3892,4.3999,4.4099,4.4143,4.4128,4.4129,4.4157,4.4154,4.4138,4.4146,4.3847,4.4122,4.412,4.4119,4.4118,4.4117,4.3173,4.3255,4.3327,4.3429,4.3485,4.3554,4.3635,4.3673,4.3765,4.3873,4.3878,4.3998,4.4071,4.4204,4.4254,4.4347,4.4317,4.4357,4.4367,4.4376,4.4383,4.4124,4.4366,4.4366,4.4365,4.4365,4.4364,0,4.3408,4.3452,4.3545,4.3647,4.3726,4.3703,4.3783,4.3851,4.3956,4.4025,4.4109,4.4235,4.4337,4.439,4.4492,4.4557,4.4552,4.4583,4.4577,4.4587,4.4405,4.4371,4.4584,4.4584,4.4584,4.4584,4.4584,4.4584,4.3539,4.3676,4.3694,4.3858,4.3902,4.4018,4.4065,4.4127,4.4182,4.4323,4.4407,4.444,4.4503,4.4608,4.4701,4.4713,4.4751,4.4785,4.4794,4.4623,4.46,4.4579,4.4546,4.4794,4.4794,4.4968,4.497,4.4971]},{"header":{"parameterUnit":"m.s-1","parameterCategory":1,"la1":30.2991,"la2":30.254,"lo1":-89.0895,"lo2":-89.0444,"dy":0.0017,"dx":0.0017,"nx":28,"ny":28,"refTime":"2025-07-19T09:00:00:Z","depth":0,"parameterNumber":3,"parameterNumberName":"V-component_of_WINDS"},"data":[0,0,0,0,0,0,0,0,0,0,0,0,0,0,0,0,0,0,0,0,0,0,0,0,0,0,0,0,0,0,0,0,0,0,0,0,0,0,0,0,0,0,0,0,0,0,0,0,0,0,0,0,0,0,0,0,0,0,-0.1936,-0.1936,0,-0.195,-0.195,-0.195,-0.1968,-0.1968,-0.1968,-0.1969,-0.1983,-0.1983,-0.1983,0,0,0,0,0,0,0,0,0,0,0,0,0,-0.1924,-0.1924,-0.1936,-0.1936,-0.1936,-0.195,-0.195,-0.195,-0.1968,-0.1968,-0.1968,-0.1969,-0.1983,-0.1983,-0.1983,0,0,0,0,0,0,0,0,0,0,0,0,0,-0.1933,-0.1924,-0.1935,-0.1946,-0.1947,-0.195,-0.195,-0.195,-0.1968,-0.1968,-0.1969,-0.1969,-0.1983,-0.1983,-0.1983,-0.1976,0,0,-0.1984,-0.1984,0,0,0,0,0,0,0,0,-0.1932,-0.1933,-0.1945,-0.1946,-0.1947,-0.1958,-0.1951,-0.1959,-0.1968,-0.196,-0.1969,-0.1969,-0.1974,-0.1975,-0.1977,-0.1977,-0.1977,-0.1984,-0.1984,-0.1984,-0.1984,0,0,0,0,0,0,0,-0.1931,-0.1932,-0.1941,-0.1945,-0.1946,-0.1951,-0.1952,-0.1953,-0.1964,-0.1961,-0.1962,-0.1964,-0.1975,-0.1977,-0.1977,-0.1977,-0.1984,-0.1984,-0.1984,-0.1984,-0.1973,-0.1973,0,0,0,0,0,0,-0.1929,-0.1932,-0.1941,-0.1942,-0.194,-0.1951,-0.1952,-0.1954,-0.1965,-0.1967,-0.1963,-0.1964,-0.1976,-0.1977,-0.1978,-0.197,-0.1984,-0.1984,-0.1984,-0.1973,-0.1973,-0.1972,0,0,0,0,0,0,-0.1929,-0.193,-0.194,-0.1937,-0.1939,-0.195,-0.1952,-0.1954,-0.1955,-0.1966,-0.1969,-0.1963,-0.1976,-0.1978,-0.1976,-0.1971,-0.1984,-0.1984,-0.1974,-0.1973,-0.1973,-0.1955,0,0,0,0,0,0,-0.1928,-0.193,-0.1927,-0.1937,-0.1939,-0.1938,-0.1951,-0.1954,-0.1956,-0.1957,-0.1967,-0.1968,-0.1977,-0.1976,-0.1977,-0.1972,-0.1984,-0.1974,-0.1974,-0.1973,-0.1956,-0.1954,-0.1952,0,0,0,0,0,-0.1928,-0.1921,-0.1926,-0.1927,-0.1935,-0.1938,-0.1939,-0.1949,-0.1955,-0.1953,-0.196,-0.1968,-0.1972,-0.1976,-0.1977,-0.1972,-0.1975,-0.1974,-0.1973,-0.1957,-0.1955,-0.1952,0,0,0,0,0,0,-0.1909,-0.1922,-0.1929,-0.1925,-0.193,-0.1941,-0.1938,-0.1946,-0.1949,-0.1951,-0.1963,-0.1965,-0.1962,-0.1967,-0.1971,-0.1966,-0.1975,-0.1974,-0.1962,-0.196,-0.1958,-0.1957,-0.1985,0,0,0,0,0,-0.1905,-0.1906,-0.1917,-0.1913,-0.1915,-0.1926,-0.1927,-0.1935,-0.1941,-0.1943,-0.195,-0.1956,-0.1958,-0.1959,-0.1962,-0.1957,-0.196,-0.1954,-0.1952,-0.1951,-0.195,-0.1948,-0.1946,-0.1969,-0.1969,-0.1969,0,0,-0.1895,-0.1903,-0.1902,-0.1909,-0.1914,-0.1915,-0.1928,-0.1928,-0.1929,-0.1943,-0.1942,-0.1948,-0.1955,-0.1952,-0.1951,-0.1956,-0.1944,-0.195,-0.1948,-0.1948,-0.1947,-0.1945,-0.1943,-0.1969,-0.1969,-0.1969,0,0,-0.1878,-0.1884,-0.1881,-0.1886,-0.1894,-0.1901,-0.1901,-0.1911,-0.1915,-0.1915,-0.1926,-0.1927,-0.1931,-0.1936,-0.1939,-0.1925,-0.1933,-0.1926,-0.1915,-0.1913,-0.1912,-0.191,-0.1905,-0.1904,-0.1925,-0.1925,-0.1925,0,-0.1865,-0.1867,-0.1878,-0.1878,-0.1881,-0.1895,-0.1892,-0.1897,-0.1905,-0.1906,-0.1912,-0.1918,-0.1923,-0.1922,-0.1919,-0.1921,-0.1921,-0.1925,-0.1911,-0.191,-0.1908,-0.1904,-0.1902,-0.1924,-0.1924,-0.1924,-0.1924,0,-0.1851,-0.1852,-0.1849,-0.1857,-0.186,-0.1858,-0.1869,-0.1871,-0.1878,-0.1885,-0.1886,-0.1893,-0.1898,-0.1899,-0.1905,-0.1899,-0.1901,-0.1909,-0.1918,-0.1905,-0.1901,-0.19,-0.1923,-0.1923,-0.1923,-0.1924,0,0,-0.1821,-0.1837,-0.1835,-0.184,-0.185,-0.1851,-0.1851,-0.1856,-0.1857,-0.1863,-0.1863,-0.1866,-0.1873,-0.1877,-0.1885,-0.1883,-0.1873,-0.1891,-0.1891,-0.1887,-0.1866,-0.1861,-0.1858,-0.1878,-0.1878,-0.1878,-0.1866,0,-0.1806,-0.1806,-0.1817,-0.1814,-0.1816,-0.1829,-0.1829,-0.1836,-0.1843,-0.1845,-0.1853,-0.1855,-0.1864,-0.1867,-0.1866,-0.1874,-0.1869,-0.1875,-0.1879,-0.1879,-0.1876,-0.1856,-0.185,-0.1838,-0.1864,-0.1864,-0.1864,0,-0.1788,-0.1793,-0.1791,-0.1802,-0.1803,-0.1802,-0.1809,-0.1811,-0.1819,-0.1824,-0.1828,-0.1838,-0.1839,-0.1848,-0.1849,-0.1854,-0.1856,-0.186,-0.186,-0.186,-0.187,-0.1856,-0.1834,-0.1833,-0.1862,-0.1862,-0.1862,0,-0.1767,-0.1773,-0.1773,-0.1776,-0.1789,-0.1788,-0.1794,-0.1802,-0.1805,-0.1811,-0.1813,-0.1818,-0.1821,-0.1826,-0.1836,-0.1842,-0.1837,-0.1847,-0.1841,-0.1841,-0.1839,-0.1839,-0.1817,-0.1841,-0.1841,-0.1841,-0.1841,0,-0.1749,-0.1747,-0.1764,-0.1763,-0.1761,-0.1774,-0.1772,-0.1779,-0.1787,-0.1788,-0.1801,-0.1802,-0.1816,-0.1819,-0.1827,-0.1828,-0.1829,-0.1833,-0.1836,-0.1832,-0.1831,-0.1833,-0.1834,-0.1841,-0.1841,-0.1841,-0.1841,0,-0.1725,-0.1736,-0.1736,-0.1749,-0.1752,-0.175,-0.1761,-0.1762,-0.177,-0.1772,-0.1773,-0.1786,-0.179,-0.1801,-0.1808,-0.1814,-0.1812,-0.1816,-0.1809,-0.1811,-0.1805,-0.1805,-0.1783,-0.1781,-0.1806,-0.1806,-0.1806,0,-0.1712,-0.1711,-0.1724,-0.1726,-0.1731,-0.1734,-0.1737,-0.175,-0.1753,-0.1762,-0.1762,-0.1767,-0.1772,-0.1778,-0.1788,-0.1794,-0.1798,-0.179,-0.1799,-0.1796,-0.1798,-0.1798,-0.1798,-0.1788,-0.1788,-0.1788,-0.1787,0,-0.1688,-0.1694,-0.1698,-0.1705,-0.1708,-0.1714,-0.172,-0.1721,-0.1736,-0.1739,-0.1743,-0.1747,-0.1755,-0.176,-0.1768,-0.1774,-0.1783,-0.1785,-0.1784,-0.178,-0.1776,-0.1778,-0.1804,-0.1785,-0.1785,-0.1785,-0.1785,-0.1785,-0.167,-0.1669,-0.1679,-0.1683,-0.1689,-0.1695,-0.1697,-0.1705,-0.171,-0.1717,-0.1725,-0.1729,-0.1738,-0.1749,-0.1754,-0.1758,-0.1763,-0.1761,-0.1761,-0.176,-0.1759,-0.1776,-0.1759,-0.1759,-0.176,-0.176,-0.176,0,-0.1647,-0.1654,-0.1658,-0.1666,-0.167,-0.1679,-0.1687,-0.169,-0.1693,-0.1701,-0.1706,-0.1711,-0.1717,-0.1728,-0.1735,-0.1735,-0.174,-0.1737,-0.1737,-0.1738,-0.1754,-0.1754,-0.1733,-0.1733,-0.1733,-0.1733,-0.1733,-0.1733,-0.1635,-0.1636,-0.1643,-0.1647,-0.1654,-0.1658,-0.1662,-0.1668,-0.1674,-0.168,-0.1685,-0.1692,-0.1701,-0.1709,-0.1715,-0.1718,-0.172,-0.1715,-0.172,-0.1734,-0.1737,-0.1739,-0.1739,-0.1715,-0.1715,-0.1704,-0.1703,-0.1703]}]]